{"data":{"norad_id":59168,"intl_designator":"2024-044S","name":"STARLINK-31322","alt_names":[],"object_type":"PAYLOAD","status":"ACTIVE","operator":null,"country":"US","launch_date":"2024-03-04","launch_site_code":"AFETR","launch_vehicle":null,"mission":null,"orbit_class":"UNKNOWN","rcs_meters":null,"size_class":null,"mass_kg":null,"dimensions":null,"purposes":["comms"],"wikipedia_slug":null,"has_3d_model":false,"image_url":null,"decayed_at":null,"tle_current":{"epoch":"2026-09-20T21:07:09.198048Z","epoch_age_seconds":126026,"freshness":"FRESH","line1":"1 59168U 24044S   26263.87996757  .00006680  00000+0  25220-3 0  9993","line2":"2 59168  43.0019  85.0148 0000759 264.3383  95.7382 15.27560217143440","mean_motion":15.27560217,"eccentricity":7.59e-5,"inclination_deg":43.0019,"raan_deg":85.0148,"arg_perigee_deg":264.3383,"mean_anomaly_deg":95.7382,"bstar":0.0002522,"rev_number":14344,"period_min":94.267969535632,"perigee_km":482.587565577,"apogee_km":483.62910261871,"semimajor_km":6861.2453340979,"source":"CELESTRAK","updated_at":"2026-09-21T09:00:34.059629Z"}}}